GW0552 Weather Reports


time (UTC)temp
F
wind
direction
speed
knots
gust
knots
rain 1hr
in
rain 24hr
in
rain mn
in
humidity
%
barometer
mb
20260903113113 70 62 0.0 0.0 0.00 0.00 0.00 99 1014.6
20260903112609 70 61 0.0 0.0 0.00 0.00 0.00 99 1014.4
20260903112108 70 61 0.0 0.0 0.00 0.00 0.00 99 1014.2
20260903111607 70 62 0.0 0.0 0.00 0.00 0.00 99 1014.4
20260903111103 70 62 0.0 0.0 0.00 0.00 0.00 99 1014.2
20260903110559 70 62 0.0 0.0 0.00 0.00 0.00 99 1014.2
20260903110054 70 62 0.0 0.0 0.00 0.00 0.00 99 1014.1
20260903105549 70 62 0.0 0.0 0.00 0.00 0.00 99 1014.0
20260903105044 70 62 0.0 0.0 0.00 0.00 0.00 99 1014.1
20260903104543 70 62 0.0 0.0 0.00 0.00 0.00 99 1013.9
20260903104039 70 62 0.0 0.0 0.00 0.00 0.00 99 1013.9
20260903103535 70 65 0.0 0.0 0.00 0.00 0.00 99 1013.8
20260903103031 70 63 0.0 0.0 0.00 0.00 0.00 99 1013.9
20260903102526 70 61 0.0 0.0 0.00 0.00 0.00 99 1013.6
20260903102025 70 61 0.0 0.0 0.00 0.00 0.00 99 1013.6
20260903101520 70 61 0.0 0.0 0.00 0.00 0.00 99 1013.6
20260903101016 70 61 0.0 0.0 0.00 0.00 0.00 99 1013.8
20260903100511 71 61 0.0 0.0 0.00 0.00 0.00 99 1013.9
20260903100009 70 60 0.0 0.0 0.00 0.00 0.00 99 1013.8
20260903095502 70 59 0.0 0.0 0.00 0.00 0.00 99 1013.6
20260903094957 70 59 0.0 0.0 0.00 0.00 0.00 99 1013.7
20260903094456 70 59 0.0 0.0 0.00 0.00 0.00 99 1013.6
20260903093953 71 61 0.0 0.0 0.00 0.00 0.00 99 1013.7
20260903093448 71 61 0.0 0.0 0.00 0.00 0.00 99 1013.6
20260903092944 71 61 0.0 0.0 0.00 0.00 0.00 99 1013.5
20260903092443 71 64 0.0 0.0 0.00 0.00 0.00 99 1013.7
20260903091942 71 62 0.0 0.0 0.00 0.00 0.00 99 1013.8
20260903091440 71 61 0.0 0.0 0.00 0.00 0.00 99 1013.8
20260903090936 71 61 0.0 0.0 0.00 0.00 0.00 99 1013.7
20260903090432 71 61 0.0 0.0 0.00 0.00 0.00 99 1013.8
20260903085930 71 61 0.0 0.0 0.00 0.00 0.00 99 1013.8
20260903085428 71 62 0.0 0.0 0.00 0.00 0.00 99 1013.8
20260903084928 71 61 0.0 0.0 0.00 0.00 0.00 99 1013.6
20260903084427 71 62 0.0 0.0 0.00 0.00 0.00 99 1013.6
20260903083922 71 57 0.0 0.0 0.00 0.00 0.00 99 1013.7
20260903083419 71 57 0.0 0.0 0.00 0.00 0.00 99 1013.4
20260903082917 71 53 0.0 0.0 0.00 0.00 0.00 99 1013.6
20260903082412 71 62 0.0 0.0 0.00 0.00 0.00 99 1013.6
20260903081908 72 72 0.9 1.7 0.00 0.00 0.00 99 1013.6
20260903081403 71 70 0.9 0.9 0.00 0.00 0.00 99 1013.6
20260903080859 71 65 0.9 0.9 0.00 0.00 0.00 99 1013.5
20260903080355 72 72 0.9 1.7 0.00 0.00 0.00 99 1013.5
20260903075849 71 70 0.0 0.0 0.00 0.00 0.00 99 1013.9
20260903075345 71 65 0.0 0.0 0.00 0.00 0.00 99 1013.5
20260903074844 72 63 0.0 0.0 0.00 0.00 0.00 99 1013.6
20260903074339 71 63 0.0 0.0 0.00 0.00 0.00 99 1013.6
20260903073835 71 63 0.0 0.0 0.00 0.00 0.00 99 1013.5
20260903073330 72 63 0.0 0.0 0.00 0.00 0.00 99 1013.7
20260903072825 72 63 0.0 0.0 0.00 0.00 0.00 99 1013.4
20260903072321 72 63 0.0 0.0 0.00 0.00 0.00 99 1013.5
20260903071818 72 63 0.0 0.0 0.00 0.00 0.00 99 1013.5
20260903071314 72 63 0.0 0.0 0.00 0.00 0.00 99 1013.3
20260903070808 72 63 0.0 0.0 0.00 0.00 0.00 99 1013.6
20260903070304 72 66 0.0 0.0 0.00 0.00 0.00 99 1013.4
20260903065759 72 65 0.0 0.0 0.00 0.00 0.00 99 1013.5
20260903065258 72 63 0.0 0.0 0.00 0.00 0.00 99 1013.6
20260903064757 72 61 0.0 0.0 0.00 0.00 0.00 99 1013.6
20260903064253 72 59 0.0 0.0 0.00 0.00 0.00 99 1013.7
20260903063749 72 59 0.0 0.0 0.00 0.00 0.00 99 1013.6
20260903063243 72 59 0.0 0.0 0.00 0.00 0.00 99 1013.4
20260903062739 72 59 0.0 0.0 0.00 0.00 0.00 99 1013.6
20260903062232 73 59 0.0 0.0 0.00 0.00 0.00 99 1013.5
20260903061729 73 60 0.0 0.0 0.00 0.00 0.00 99 1013.5
20260903061228 73 63 0.0 0.0 0.00 0.00 0.00 99 1013.6
20260903060724 73 63 0.0 0.0 0.00 0.00 0.00 99 1013.5
20260903060223 73 67 0.0 0.0 0.00 0.00 0.00 99 1013.3
20260903055720 73 59 0.0 0.0 0.00 0.00 0.00 99 1013.5
20260903055219 73 58 0.0 0.0 0.00 0.00 0.00 99 1013.4
20260903054714 73 57 0.0 0.0 0.00 0.00 0.00 99 1013.2
20260903054210 73 56 0.0 0.0 0.00 0.00 0.00 99 1013.5
20260903053707 73 56 0.0 0.0 0.00 0.00 0.00 99 1013.5
20260903053201 73 56 0.0 0.0 0.00 0.00 0.00 99 1013.4
20260903052657 73 55 0.0 0.0 0.00 0.00 0.00 99 1013.5
20260903052152 73 55 0.0 0.0 0.00 0.00 0.00 99 1013.5
20260903051647 73 68 0.0 0.0 0.00 0.00 0.00 99 1013.6
20260903051143 73 66 0.0 0.0 0.00 0.00 0.00 99 1013.5
20260903050638 74 63 0.0 0.0 0.00 0.00 0.00 99 1013.3
20260903050132 73 60 0.0 0.0 0.00 0.00 0.00 99 1013.4
20260903045631 74 65 0.0 0.0 0.00 0.00 0.00 99 1013.1
20260903045128 74 65 0.0 0.9 0.00 0.00 0.00 99 1013.2
20260903044624 74 64 0.0 0.0 0.00 0.00 0.00 99 1013.2
20260903044119 74 62 0.0 0.0 0.00 0.00 0.00 99 1013.3
20260903043616 74 61 0.0 0.0 0.00 0.00 0.00 99 1013.3
20260903043115 74 66 0.0 0.0 0.00 0.00 0.00 99 1013.1
20260903042609 74 70 0.0 0.0 0.00 0.00 0.00 99 1013.3
20260903042105 74 67 0.0 0.0 0.00 0.00 0.00 99 1013.2
20260903041601 74 67 0.0 0.0 0.00 0.00 0.00 99 1013.2
20260903041102 74 67 0.0 0.0 0.00 0.00 0.00 99 1013.4
20260903040600 74 67 0.0 0.0 0.00 0.00 0.00 99 1013.4
20260903040057 74 67 0.0 0.0 0.00 0.00 0.00 99 1013.3
20260903035553 74 67 0.0 0.0 0.00 0.00 0.00 99 1013.5
20260903035048 75 67 0.0 0.0 0.00 0.00 0.00 99 1013.3
20260903034543 75 67 0.0 0.0 0.00 0.00 0.00 99 1013.4
20260903034038 75 67 0.0 0.0 0.00 0.00 0.00 99 1013.4
20260903033533 75 67 0.0 0.0 0.00 0.00 0.00 99 1013.3
20260903033028 75 67 0.0 0.0 0.00 0.00 0.00 99 1013.5
20260903032523 75 67 0.0 0.0 0.00 0.00 0.00 99 1013.4
20260903032018 75 66 0.0 0.0 0.00 0.00 0.00 99 1013.6
20260903031513 75 66 0.0 0.0 0.00 0.00 0.00 99 1013.4
20260903031008 75 67 0.0 0.9 0.00 0.00 0.00 99 1013.6
20260903030504 75 81 0.9 0.9 0.00 0.00 0.00 99 1013.4
20260903025959 75 70 0.0 0.0 0.00 0.00 0.00 99 1013.4
20260903025455 75 69 0.0 0.0 0.00 0.00 0.00 99 1013.4
20260903024950 76 68 0.0 0.0 0.00 0.00 0.00 98 1013.5
20260903024449 76 68 0.0 0.0 0.00 0.00 0.00 98 1013.7
20260903023944 76 68 0.0 0.0 0.00 0.00 0.00 98 1013.5
20260903023440 76 68 0.0 0.0 0.00 0.00 0.00 98 1013.7
20260903022935 76 68 0.0 0.0 0.00 0.00 0.00 98 1013.6
20260903022434 76 68 0.0 0.0 0.00 0.00 0.00 98 1013.4
20260903021932 76 68 0.0 0.0 0.00 0.00 0.00 98 1013.1
20260903021428 76 68 0.0 0.0 0.00 0.00 0.00 98 1013.6
20260903020923 76 68 0.0 0.0 0.00 0.00 0.00 98 1013.3
20260903020418 77 68 0.0 0.0 0.00 0.00 0.00 98 1013.5
20260903015913 77 67 0.0 0.0 0.00 0.00 0.00 97 1013.3
20260903015409 77 65 0.0 0.0 0.00 0.00 0.00 97 1013.5
20260903014904 77 72 0.0 0.0 0.00 0.00 0.00 97 1013.3
20260903014403 77 71 0.0 0.0 0.00 0.00 0.00 97 1013.5
20260903013858 77 71 0.0 0.0 0.00 0.00 0.00 97 1013.5
20260903013358 77 66 0.0 0.0 0.00 0.00 0.00 96 1013.4
20260903012857 77 67 0.0 0.0 0.00 0.00 0.00 96 1013.5
20260903012356 77 66 0.0 0.0 0.00 0.00 0.00 96 1013.2
20260903011855 78 66 0.0 0.0 0.00 0.00 0.00 96 1013.1
20260903011350 78 66 0.0 0.0 0.00 0.00 0.00 96 1013.2
20260903010846 78 66 0.0 0.0 0.00 0.00 0.00 95 1013.2
20260903010341 78 66 0.0 0.0 0.00 0.00 0.00 95 1013.0
20260903005839 78 66 0.0 0.0 0.00 0.00 0.00 95 1012.9
20260903005334 78 66 0.0 0.0 0.00 0.00 0.00 95 1013.0
20260903004831 78 66 0.0 0.0 0.00 0.00 0.00 95 1012.9
20260903004326 78 71 0.0 0.0 0.00 0.00 0.00 94 1012.8
20260903003821 79 69 0.0 0.0 0.00 0.00 0.00 94 1013.0
20260903003316 79 66 0.0 0.0 0.00 0.00 0.00 94 1012.5
20260903002816 79 67 0.0 0.0 0.00 0.00 0.00 94 1012.6
20260903002315 79 74 0.9 0.9 0.00 0.00 0.00 93 1012.6
20260903001810 80 77 0.9 0.9 0.00 0.00 0.00 93 1012.6
20260903001306 80 77 0.9 0.9 0.00 0.00 0.00 92 1012.6
20260903000806 80 80 0.0 0.0 0.00 0.00 0.00 91 1012.5
20260903000303 80 80 0.0 0.0 0.00 0.00 0.00 90 1012.6
20260902235758 81 81 0.0 0.0 0.00 0.00 0.00 89 1012.6
20260902235254 81 80 0.0 0.0 0.00 0.00 0.00 89 1012.7
20260902234754 82 81 0.0 0.0 0.00 0.00 0.00 88 1012.5
20260902234248 82 80 0.0 0.0 0.00 0.00 0.00 86 1012.6
20260902233747 82 80 0.0 0.0 0.00 0.00 0.00 84 1012.7
20260902233242 83 80 0.0 0.0 0.00 0.00 0.00 83 1012.6
20260902232740 83 80 0.0 0.0 0.00 0.00 0.00 82 1012.8
20260902232235 83 80 0.0 0.0 0.00 0.00 0.00 81 1012.7
20260902231734 84 80 0.0 0.0 0.00 0.00 0.00 80 1012.7
20260902231230 84 80 0.0 0.0 0.00 0.00 0.00 79 1013.0
20260902230724 85 80 0.0 0.0 0.00 0.00 0.00 78 1012.5
20260902230223 85 80 0.0 0.0 0.00 0.00 0.00 76 1012.8
20260902225718 86 80 0.0 0.0 0.00 0.00 0.00 76 1012.9
20260902225219 86 80 0.0 0.0 0.00 0.00 0.00 74 1012.6
20260902224717 87 80 0.0 0.0 0.00 0.00 0.00 73 1012.9
20260902224212 88 80 0.0 0.0 0.00 0.00 0.00 72 1012.7
20260902223708 89 80 0.0 0.0 0.00 0.00 0.00 70 1012.9
20260902223208 89 80 0.0 0.0 0.00 0.00 0.00 70 1013.0
20260902222707 90 80 0.0 0.0 0.00 0.00 0.00 68 1012.7
20260902222201 91 75 0.0 0.0 0.00 0.00 0.00 66 1012.8
20260902221655 91 70 0.0 0.0 0.00 0.00 0.00 64 1012.8
20260902221154 92 69 0.9 0.9 0.00 0.00 0.00 63 1012.9
20260902220651 92 76 4.3 7.0 0.00 0.00 0.00 60 1012.9
20260902220145 93 88 1.7 2.6 0.00 0.00 0.00 62 1012.7
20260902215641 93 71 3.5 4.3 0.00 0.00 0.00 59 1012.8
20260902215136 93 62 4.3 5.2 0.00 0.00 0.00 59 1012.8
20260902214631 93 72 0.9 0.9 0.00 0.00 0.00 60 1012.8
20260902214130 94 88 3.5 4.3 0.00 0.00 0.00 58 1012.8
20260902213626 93 64 0.9 0.9 0.00 0.00 0.00 60 1012.7
20260902213125 94 75 0.9 0.9 0.00 0.00 0.00 62 1012.9
20260902212620 94 81 0.9 0.9 0.00 0.00 0.00 61 1012.9
20260902212117 94 75 2.6 2.6 0.00 0.00 0.00 59 1012.8
20260902211613 94 95 1.7 2.6 0.00 0.00 0.00 58 1012.9
20260902211108 95 75 2.6 2.6 0.00 0.00 0.00 59 1013.0
20260902210607 96 80 1.7 1.7 0.00 0.00 0.00 58 1013.1
20260902205601 96 74 0.0 0.0 0.00 0.00 0.00 59 1012.9
20260902205057 95 78 0.0 0.9 0.00 0.00 0.00 57 1013.1
20260902204556 96 78 0.0 0.0 0.00 0.00 0.00 57 1013.0
20260902204052 96 83 0.0 0.0 0.00 0.00 0.00 57 1013.3
20260902203547 95 66 0.0 0.0 0.00 0.00 0.00 57 1013.5
20260902203046 95 85 0.0 0.0 0.00 0.00 0.00 59 1013.4
20260902202542 95 79 3.5 4.3 0.00 0.00 0.00 56 1013.4
20260902202038 95 70 0.0 0.9 0.00 0.00 0.00 57 1013.3
20260902201534 95 54 2.6 4.3 0.00 0.00 0.00 57 1013.3
20260902201033 96 88 1.7 1.7 0.00 0.00 0.00 54 1013.4
20260902200528 96 77 0.0 0.0 0.00 0.00 0.00 57 1013.8
20260902200024 95 75 0.0 0.0 0.00 0.00 0.00 59 1013.7
20260902195520 93 32 1.7 1.7 0.00 0.00 0.00 57 1013.7
20260902195019 93 89 1.7 2.6 0.00 0.00 0.00 59 1013.7
20260902194519 95 48 0.9 0.9 0.00 0.00 0.00 57 1013.8
20260902194014 94 34 0.0 0.9 0.00 0.00 0.00 56 1014.0
20260902193510 95 62 4.3 6.1 0.00 0.00 0.00 56 1013.8
20260902193009 95 84 2.6 4.3 0.00 0.00 0.00 54 1013.9
20260902192508 95 85 0.9 1.7 0.00 0.00 0.00 56 1013.9
20260902192007 94 0 2.6 2.6 0.00 0.00 0.00 58 1013.8
20260902191502 94 92 4.3 5.2 0.00 0.00 0.00 57 1013.9
20260902190957 94 142 2.6 5.2 0.00 0.00 0.00 61 1013.8
20260902190452 94 91 3.5 5.2 0.00 0.00 0.00 60 1014.1
20260902185948 95 66 0.9 0.9 0.00 0.00 0.00 56 1014.0
20260902185444 94 81 2.6 4.3 0.00 0.00 0.00 56 1014.1
20260902184939 94 103 1.7 2.6 0.00 0.00 0.00 59 1014.0
20260902184434 95 69 0.9 1.7 0.00 0.00 0.00 58 1014.2
20260902183929 95 69 0.9 0.9 0.00 0.00 0.00 57 1014.2
20260902183426 94 126 4.3 4.3 0.00 0.00 0.00 56 1014.3
20260902182921 94 88 2.6 2.6 0.00 0.00 0.00 63 1014.5
20260902182417 94 141 3.5 4.3 0.00 0.00 0.00 61 1014.5
20260902181914 94 79 0.0 0.0 0.00 0.00 0.00 60 1014.3
20260902181409 93 39 0.9 0.9 0.00 0.00 0.00 60 1014.3
20260902180903 93 82 0.0 0.0 0.00 0.00 0.00 61 1014.4
20260902180358 93 63 0.0 0.9 0.00 0.00 0.00 61 1014.5
20260902175854 93 65 0.0 0.0 0.00 0.00 0.00 60 1014.5
20260902175349 94 102 0.9 1.7 0.00 0.00 0.00 64 1014.5
20260902174844 92 61 0.0 0.0 0.00 0.00 0.00 70 1014.6
20260902174341 93 53 4.3 5.2 0.00 0.00 0.00 59 1014.7
20260902173831 95 69 0.0 0.0 0.00 0.00 0.00 58 1014.9
20260902173331 94 59 0.0 0.9 0.00 0.00 0.00 63 1015.1
20260902172831 95 70 0.0 0.9 0.00 0.00 0.00 58 1015.0
20260902172325 94 15 1.7 1.7 0.00 0.00 0.00 58 1015.3
20260902171820 93 30 0.0 0.0 0.00 0.00 0.00 60 1015.3
20260902171315 93 53 0.0 0.0 0.00 0.00 0.00 60 1015.2
20260902170806 93 338 1.7 1.7 0.00 0.00 0.00 61 1015.5
20260902170300 93 68 0.0 0.9 0.00 0.00 0.00 61 1015.5
20260902165756 93 53 0.0 0.0 0.00 0.00 0.00 62 1015.7
20260902165250 93 19 0.0 0.0 0.00 0.00 0.00 60 1015.7
20260902164744 93 36 0.0 0.0 0.00 0.00 0.00 63 1015.8
20260902164238 93 10 0.0 0.0 0.00 0.00 0.00 63 1015.9
20260902163734 92 61 0.9 1.7 0.00 0.00 0.00 64 1016.0
20260902163233 92 104 2.6 2.6 0.00 0.00 0.00 66 1016.1
20260902162732 91 50 0.9 0.9 0.00 0.00 0.00 65 1016.1
20260902162227 92 54 0.0 0.9 0.00 0.00 0.00 66 1016.2
20260902161722 92 92 0.0 0.9 0.00 0.00 0.00 67 1016.1
20260902161217 91 56 0.0 0.0 0.00 0.00 0.00 70 1016.4
20260902160714 91 80 1.7 1.7 0.00 0.00 0.00 66 1016.2
20260902160208 91 66 2.6 4.3 0.00 0.00 0.00 65 1016.2
20260902155706 91 28 0.0 0.0 0.00 0.00 0.00 67 1016.2
20260902155205 91 49 0.9 0.9 0.00 0.00 0.00 68 1016.3
20260902154701 90 80 0.9 1.7 0.00 0.00 0.00 71 1016.3
20260902154200 90 43 0.0 0.0 0.00 0.00 0.00 68 1016.4
20260902153655 89 73 1.7 1.7 0.00 0.00 0.00 70 1016.4
20260902153150 88 66 0.0 0.0 0.00 0.00 0.00 71 1016.4
20260902152646 88 34 0.0 0.0 0.00 0.00 0.00 72 1016.3
20260902152141 88 271 1.7 2.6 0.00 0.00 0.00 73 1016.3
20260902151636 88 77 0.0 0.0 0.00 0.00 0.00 74 1016.2
20260902151137 88 359 1.7 2.6 0.00 0.00 0.00 74 1016.3
20260902150632 88 49 0.0 0.0 0.00 0.00 0.00 78 1016.4
20260902150127 87 66 0.0 0.0 0.00 0.00 0.00 79 1016.4
20260902145622 86 47 0.0 0.0 0.00 0.00 0.00 82 1016.2
20260902145121 86 93 0.0 0.0 0.00 0.00 0.00 82 1016.2
20260902144618 85 81 0.0 0.0 0.00 0.00 0.00 80 1016.2
20260902144118 85 59 0.9 1.7 0.00 0.00 0.00 81 1016.0
20260902143613 84 63 0.0 0.0 0.00 0.00 0.00 88 1016.1
20260902143109 84 34 0.0 0.0 0.00 0.00 0.00 90 1016.1
20260902142605 83 38 0.0 0.0 0.00 0.00 0.00 90 1016.3
20260902142100 82 37 0.0 0.9 0.00 0.00 0.00 89 1016.1
20260902141600 82 53 0.0 0.0 0.00 0.00 0.00 89 1016.1
20260902141055 82 39 0.0 0.0 0.00 0.00 0.00 88 1016.1
20260902140549 81 127 3.5 7.0 0.00 0.00 0.00 88 1016.1
20260902140046 81 117 1.7 1.7 0.00 0.00 0.00 87 1016.0
20260902135545 80 126 0.9 0.9 0.00 0.00 0.00 90 1016.0
20260902135045 80 120 0.9 0.9 0.00 0.00 0.00 91 1016.0
20260902134541 79 120 0.0 0.0 0.00 0.00 0.00 94 1015.8
20260902134041 78 110 0.0 0.0 0.00 0.00 0.00 96 1015.9
20260902133536 77 114 0.0 0.0 0.00 0.00 0.00 98 1015.9
20260902133036 77 114 0.0 0.0 0.00 0.00 0.00 99 1016.1
20260902132531 76 113 0.0 0.0 0.00 0.00 0.00 99 1015.9
20260902132026 75 110 0.0 0.0 0.00 0.00 0.00 99 1016.0
20260902131522 75 114 0.0 0.0 0.00 0.00 0.00 99 1015.9
20260902130918 73 117 0.0 0.0 0.00 0.00 0.00 99 1016.0
20260902130414 73 117 0.0 0.0 0.00 0.00 0.00 99 1016.0
20260902125908 72 116 0.0 0.0 0.00 0.00 0.00 99 1015.9
20260902125405 72 117 0.0 0.0 0.00 0.00 0.00 99 1015.8
20260902124900 72 116 0.0 0.0 0.00 0.00 0.00 99 1015.9
20260902124356 71 118 0.0 0.0 0.00 0.00 0.00 99 1016.0
20260902123851 71 119 0.0 0.0 0.00 0.00 0.00 99 1016.0
20260902123348 70 121 0.0 0.0 0.00 0.00 0.00 99 1015.8
20260902122846 70 120 0.0 0.0 0.00 0.00 0.00 99 1015.9
20260902122342 70 120 0.0 0.0 0.00 0.00 0.00 99 1015.8
20260902121842 69 121 0.0 0.0 0.00 0.00 0.00 99 1016.0
20260902121337 69 121 0.0 0.0 0.00 0.00 0.00 99 1015.9
20260902120832 69 121 0.0 0.0 0.00 0.00 0.00 99 1016.0
20260902120328 69 121 0.0 0.0 0.00 0.00 0.00 99 1015.8
20260902115823 69 121 0.0 0.0 0.00 0.00 0.00 99 1016.0
20260902115319 69 121 0.0 0.0 0.00 0.00 0.00 99 1015.9
20260902114710 68 120 0.0 0.0 0.00 0.00 0.00 99 1015.7
20260902114206 68 120 0.0 0.0 0.00 0.00 0.00 99 1015.7
20260902113700 68 121 0.0 0.0 0.00 0.00 0.00 99 1015.7